Weather History for Campo, CA

Change the Weather History Date:

Monday, April 29, 2013

  Actual Average Record
Temperature  
Mean Temperature 64 °F 58 °F  
Max Temperature 85 °F 76 °F 92 °F (1996)
Min Temperature 42 °F 40 °F 24 °F (1970)
Degree Days  
Heating Degree Days 1 7  
Month to date heating degree days 283 292  
Since 1 July heating degree days 2799 2760  
Cooling Degree Days 0 0  
Month to date cooling degree days 1 0  
Year to date cooling degree days 1 0  
Growing Degree Days 14 (Base 50)    
Moisture  
Dew Point 36 °F    
Average Humidity 42    
Maximum Humidity 71    
Minimum Humidity 13    
Precipitation  
Precipitation 0.00 in 0.02 in 1.45 in (1951)
Month to date precipitation 0.01 0.94  
Year to date precipitation 4.45 9.84  
Since 1 July precipitation 8.92 15.42  
Snow  
Snow 0.00 in - - ()
Month to date snowfall 0.0  
Year to date snowfall 0.0  
Since 1 July snowfall 0.0  
Snow Depth 0.00 in    
Sea Level Pressure  
Sea Level Pressure 29.79 in    
Wind  
Wind Speed 9 mph (South)    
Max Wind Speed 21 mph    
Max Gust Speed 26 mph    
T = Trace of Precipitation, MM = Missing Value Source: NWS Daily Summary

Daily Weather History Graph

Daily Weather History Graph

Search for Another Location

Airport:

Trip Planner

Search our weather history database for the weather conditions in past years. The results will help you decide how hot, cold, wet, or windy it might be!

Date:

Astronomy

Apr. 29, 2013 Rise Set
Actual Time 6:00 AM PDT 7:26 PM PDT
Civil Twilight 5:34 AM PDT 7:52 PM PDT
Nautical Twilight 5:03 AM PDT 8:23 PM PDT
Astronomical Twilight 4:30 AM PDT 8:56 PM PDT
Moon 11:50 PM PDT (4/29) 9:31 AM PDT (4/29)
Length of Visible Light 14h 17m
Length of Day
13h 25m
Waning Gibbous, 79% of the Moon is Illuminated
Apr 29
Waning Gibbous
May 2
Last Quarter
May 9
New
May 17
First Quarter
May 24
Full

Hourly Weather History & Observations

Time (PDT) Temp. Windchill Dew Point Humidity Pressure Visibility Wind Dir Wind Speed Gust Speed Precip Events Conditions
12:52 AM 48.9 °F - 39.0 °F 69% 29.83 in - Calm Calm - N/A   Unknown
1:52 AM 46.9 °F - 37.0 °F 68% 29.82 in - NE 6.9 mph - N/A   Unknown
2:52 AM 46.0 °F 42.5 °F 36.0 °F 68% 29.81 in - NE 6.9 mph - N/A   Unknown
3:52 AM 45.0 °F 42.6 °F 36.0 °F 71% 29.81 in - NE 4.6 mph - N/A   Unknown
4:52 AM 45.0 °F 41.8 °F 34.0 °F 65% 29.81 in - NE 5.8 mph - N/A   Unknown
5:52 AM 43.0 °F 39.5 °F 32.0 °F 65% 29.82 in - NE 5.8 mph - N/A   Unknown
6:52 AM 48.0 °F - 34.0 °F 58% 29.83 in - NE 6.9 mph - N/A   Unknown
7:52 AM 59.0 °F - 36.0 °F 42% 29.83 in - Calm Calm - N/A   Unknown
8:52 AM 70.0 °F - 35.1 °F 28% 29.81 in - Calm Calm - N/A   Unknown
9:52 AM 75.9 °F - 30.0 °F 19% 29.81 in - SW 9.2 mph - N/A   Unknown
10:52 AM 79.0 °F - 28.0 °F 15% 29.80 in - SW 13.8 mph - N/A   Unknown
11:52 AM 82.0 °F - 27.0 °F 13% 29.79 in - SSW 15.0 mph - N/A   Unknown
12:52 PM 82.9 °F - 27.0 °F 13% 29.79 in - SW 12.7 mph 20.7 mph N/A   Unknown
1:52 PM 84.0 °F - 28.0 °F 13% 29.77 in - SW 16.1 mph 23.0 mph N/A   Unknown
2:52 PM 82.9 °F - 37.0 °F 19% 29.75 in - SW 17.3 mph 21.9 mph N/A   Unknown
3:52 PM 81.0 °F - 39.0 °F 22% 29.74 in - SW 19.6 mph 24.2 mph N/A   Unknown
4:52 PM 82.0 °F - 36.0 °F 19% 29.74 in - WSW 10.4 mph - N/A   Unknown
5:52 PM 78.1 °F - 46.0 °F 32% 29.74 in - SW 12.7 mph - N/A   Unknown
6:52 PM 70.0 °F - 48.0 °F 46% 29.74 in - SSW 10.4 mph - N/A   Unknown
7:52 PM 66.0 °F - 46.9 °F 50% 29.75 in - South 3.5 mph - N/A   Unknown
8:52 PM 57.0 °F - 43.0 °F 59% 29.75 in - NNE 4.6 mph - N/A   Unknown
9:52 PM 54.0 °F - 42.1 °F 64% 29.77 in - NNE 4.6 mph - N/A   Unknown
10:52 PM 48.0 °F - 39.0 °F 71% 29.78 in - ENE 4.6 mph - N/A   Unknown
11:52 PM 46.9 °F - 37.0 °F 68% 29.77 in - NE 4.6 mph - N/A   Unknown